TimeEDT,TemperatureF,Dew PointF,Humidity,Sea Level PressureIn,VisibilityMPH,Wind Direction,Wind SpeedMPH,Gust SpeedMPH,PrecipitationIn,Events,Conditions,WindDirDegrees,DateUTC
12:52 AM,44.1,42.1,93,30.20,10.0,Calm,Calm,-,N/A,,Clear,0,2013-09-19 04:52:00
1:52 AM,43.0,41.0,93,30.19,10.0,Calm,Calm,-,N/A,,Clear,0,2013-09-19 05:52:00
2:52 AM,42.1,39.0,89,30.19,10.0,Calm,Calm,-,N/A,,Clear,0,2013-09-19 06:52:00
3:00 AM,42.8,39.2,87,30.18,10.0,Calm,Calm,-,N/A,,Partly Cloudy,0,2013-09-19 07:00:00
3:20 AM,42.8,39.2,87,30.18,4.0,Calm,Calm,-,N/A,,Mostly Cloudy,0,2013-09-19 07:20:00
3:52 AM,41.0,39.9,96,30.18,5.0,Calm,Calm,-,N/A,,Overcast,0,2013-09-19 07:52:00
4:21 AM,42.8,39.2,87,30.18,1.8,Calm,Calm,-,N/A,,Overcast,0,2013-09-19 08:21:00
4:25 AM,42.8,39.2,87,30.18,0.8,Calm,Calm,-,N/A,,Mist,0,2013-09-19 08:25:00
4:31 AM,42.8,39.2,87,30.18,0.2,Calm,Calm,-,N/A,Fog,Fog,0,2013-09-19 08:31:00
4:41 AM,41.0,39.2,93,30.18,0.2,Calm,Calm,-,N/A,Fog,Fog,0,2013-09-19 08:41:00
4:52 AM,41.0,39.9,96,30.19,0.2,Calm,Calm,-,N/A,Fog,Fog,0,2013-09-19 08:52:00
5:03 AM,42.8,39.2,87,30.18,0.5,Calm,Calm,-,N/A,Fog,Fog,0,2013-09-19 09:03:00
5:27 AM,42.8,41.0,93,30.17,0.2,Calm,Calm,-,N/A,Fog,Fog,0,2013-09-19 09:27:00
5:36 AM,42.8,41.0,93,30.17,0.5,Calm,Calm,-,N/A,Fog,Fog,0,2013-09-19 09:36:00
5:52 AM,43.0,42.1,97,30.19,0.5,Calm,Calm,-,N/A,Fog,Fog,0,2013-09-19 09:52:00
6:00 AM,42.8,42.8,100,30.18,0.2,Calm,Calm,-,N/A,Fog,Fog,0,2013-09-19 10:00:00
6:10 AM,42.8,42.8,100,30.18,0.5,Calm,Calm,-,N/A,Fog,Fog,0,2013-09-19 10:10:00
6:26 AM,42.8,42.8,100,30.18,0.2,Calm,Calm,-,N/A,Fog,Fog,0,2013-09-19 10:26:00
6:44 AM,42.8,42.8,100,30.19,0.5,Calm,Calm,-,N/A,Fog,Fog,0,2013-09-19 10:44:00
6:52 AM,44.1,43.0,96,30.20,0.5,Calm,Calm,-,N/A,Fog,Fog,0,2013-09-19 10:52:00
6:59 AM,42.8,42.8,100,30.19,0.2,Calm,Calm,-,N/A,Fog,Fog,0,2013-09-19 10:59:00
7:52 AM,43.0,43.0,100,30.20,0.2,Calm,Calm,-,N/A,Fog,Fog,0,2013-09-19 11:52:00
8:10 AM,44.6,44.6,100,30.19,0.2,Calm,Calm,-,N/A,Fog,Fog,0,2013-09-19 12:10:00
8:48 AM,44.6,44.6,100,30.17,1.0,Calm,Calm,-,N/A,,Overcast,0,2013-09-19 12:48:00
8:49 AM,46.0,45.0,96,30.19,1.2,Calm,Calm,-,N/A,,Overcast,0,2013-09-19 12:49:00
9:00 AM,46.4,44.6,93,30.17,0.5,Calm,Calm,-,N/A,Fog,Fog,0,2013-09-19 13:00:00
9:07 AM,48.2,46.4,93,30.17,1.8,Calm,Calm,-,N/A,,Mostly Cloudy,0,2013-09-19 13:07:00
9:14 AM,48.2,46.4,93,30.17,10.0,Calm,Calm,-,N/A,,Mostly Cloudy,0,2013-09-19 13:14:00
9:22 AM,48.2,46.4,93,30.17,10.0,Calm,Calm,-,N/A,,Scattered Clouds,0,2013-09-19 13:22:00
9:52 AM,51.1,46.9,86,30.19,10.0,Calm,Calm,-,N/A,,Clear,0,2013-09-19 13:52:00
10:52 AM,63.0,46.9,56,30.17,10.0,Calm,Calm,-,N/A,,Clear,0,2013-09-19 14:52:00
11:52 AM,68.0,45.0,43,30.15,10.0,NW,3.5,-,N/A,,Clear,310,2013-09-19 15:52:00
12:52 PM,71.1,46.9,42,30.14,10.0,Calm,Calm,-,N/A,,Clear,0,2013-09-19 16:52:00
1:52 PM,73.0,44.1,35,30.10,10.0,Calm,Calm,-,N/A,,Clear,0,2013-09-19 17:52:00
2:52 PM,75.0,43.0,32,30.08,10.0,Calm,Calm,-,N/A,,Clear,0,2013-09-19 18:52:00
3:52 PM,77.0,46.0,33,30.06,10.0,North,3.5,-,N/A,,Clear,350,2013-09-19 19:52:00
4:52 PM,73.9,50.0,43,30.06,10.0,Calm,Calm,-,N/A,,Clear,0,2013-09-19 20:52:00
5:52 PM,70.0,53.1,55,30.06,10.0,SW,4.6,-,N/A,,Clear,230,2013-09-19 21:52:00
6:52 PM,62.1,55.9,80,30.08,10.0,Calm,Calm,-,N/A,,Clear,0,2013-09-19 22:52:00
7:52 PM,57.0,54.0,89,30.10,10.0,Calm,Calm,-,N/A,,Clear,0,2013-09-19 23:52:00
8:52 PM,53.1,51.1,93,30.12,10.0,Calm,Calm,-,N/A,,Clear,0,2013-09-20 00:52:00
9:52 PM,50.0,48.0,93,30.12,10.0,Calm,Calm,-,N/A,,Clear,0,2013-09-20 01:52:00
10:52 PM,50.0,46.9,89,30.11,10.0,Calm,Calm,-,N/A,,Clear,0,2013-09-20 02:52:00
11:52 PM,48.0,46.9,96,30.11,9.0,Calm,Calm,-,N/A,,Clear,0,2013-09-20 03:52:00